Regional Weather Roundup
Issued by NWS Cleveland, OH

Home | Current Version | Previous Version | Graphics & Text | Print | Product List | Glossary On
Versions: 1 2 3 4 5 6 7 8 9 10 11 12 13 14 15 16 17 18 19 20 21 22 23 24 25 26 27 28 29 30 31 32 33 34 35 36 37 38 39 40 41 42 43 44 45 46 47 48 49 50
000
ASUS41 KCLE 040100
RWRCLE
OHIO REGIONAL WEATHER ROUNDUP
NATIONAL WEATHER SERVICE WILMINGTON, OH
800 PM EST TUE MAR 03 2015

NOTE: "FAIR" INDICATES FEW OR NO CLOUDS BELOW 12,000 FEET WITH NO
SIGNIFICANT WEATHER AND/OR OBSTRUCTIONS TO VISIBILITY.

OHZ001>008-015>018-024>027-034-035-043-044-040200-
   NORTHWEST OHIO

CITY           SKY/WX    TMP DP  RH WIND       PRES   REMARKS
DEFIANCE       CLOUDY    38  33  82 W10G20    29.74R
FINDLAY        CLOUDY    37  35  92 W17       29.72R FOG
TOLEDO EXPRESS CLOUDY    35  32  88 W21G26    29.70R WCI  24
TOLEDO EXEC    CLOUDY    37  33  85 W17G33    29.70R
LIMA           CLOUDY    38  32  79 W24G30    29.75R
$$

OHZ009>014-019>023-028>033-038-089-040200-
   NORTHEAST OHIO

CITY           SKY/WX    TMP DP  RH WIND       PRES   REMARKS
CLE-HOPKINS    LGT RAIN  39  36  89 SW23G37   29.72R FOG
CLE-LAKEFRONT  CLOUDY    39  36  89 SW20      29.69R
CUY CO. ARPT   NOT AVBL
LORAIN-ELYRIA  CLOUDY    39  36  89 W15G32    29.70R
ASHTABULA      CLOUDY    38  36  92 W10       29.68R
AKRON-CANTON   LGT RAIN  40  38  93 SW10      29.70R VSB 1
WOOSTER        NOT AVBL
MANSFIELD      CLOUDY    40  40 100 SW17G23   29.70R
YOUNGSTOWN     LGT RAIN  41  39  93 SW17G24   29.68R
$$

OHZ042-051>053-060>062-070>072-077>081-040200-
  SOUTHWEST OHIO

CITY           SKY/WX    TMP DP  RH WIND       PRES   REMARKS
CINC-COVINGTON LGT RAIN  48  46  93 W16G23    29.82R
CINC-LUNKEN    LGT RAIN  46  46 100 W14       29.83R
HAMILTON       LGT RAIN  47  45  93 W10G16    29.82R
DAYTON         LGT RAIN  42  40  92 W17       29.80R
WRIGHT-PAT AFB LGT RAIN  43  43 100 W18G24    29.78R
DAYTON GENERAL CLOUDY    46  45  96 W13G20    29.80R
WILMINGTON     LGT RAIN  44  43  96 W15       29.79R
$$

OHZ036-037-039>041-045>050-054>059-063>069-073>076-082>088-040200-
  CENTRAL AND SOUTHEAST OHIO

CITY           SKY/WX    TMP DP  RH WIND       PRES   REMARKS
COLUMBUS       LGT RAIN  40  39  97 SW7       29.77R FOG
OSU AIRPORT    CLOUDY    43  41  93 SW13      29.75S FOG
BOLTON FIELD   NOT AVBL
RICKENBACK AFB NOT AVBL
NEWARK         LGT RAIN  45  43  93 W15G23    29.75S
MARION         CLOUDY    40  37  89 W15G29    29.76R
LANCASTER      LGT RAIN  47  46  97 SW13G22   29.77S
ZANESVILLE     LGT RAIN  44  43  96 SW3       29.76S FOG
NEW PHILLY     LGT RAIN  47  43  86 SW12G20   29.73S
$$


USA.gov is the U.S. government's official web portal to all federal, state and local government web resources and services.